Weather History for Worland, WY

Change the Weather History Date:

Tuesday, May 14, 2013

  Actual Average Record
Temperature  
Mean Temperature 73 °F 55 °F  
Max Temperature 89 °F 69 °F 91 °F (1987)
Min Temperature 56 °F 40 °F 29 °F (2004)
Degree Days  
Heating Degree Days 0 10  
Month to date heating degree days 137 175  
Since 1 July heating degree days 7316 7642  
Cooling Degree Days 8 0  
Month to date cooling degree days 16 0  
Year to date cooling degree days 16 1  
Growing Degree Days 22 (Base 50)    
Moisture  
Dew Point 32 °F    
Average Humidity 28    
Maximum Humidity 49    
Minimum Humidity 6    
Precipitation  
Precipitation 0.00 in 0.04 in 0.55 in (1962)
Month to date precipitation 0.43 0.61  
Year to date precipitation 2.00 2.35  
Sea Level Pressure  
Sea Level Pressure 29.72 in    
Wind  
Wind Speed 9 mph (NW)    
Max Wind Speed 23 mph    
Max Gust Speed 30 mph    
Visibility 10 miles    
Events      
T = Trace of Precipitation, MM = Missing Value Source: NWS Daily Summary

Daily Weather History Graph

Daily Weather History Graph

Search for Another Location

Airport:

Trip Planner

Search our weather history database for the weather conditions in past years. The results will help you decide how hot, cold, wet, or windy it might be!

Date:

Astronomy

May. 14, 2013 Rise Set
Actual Time 5:46 AM MDT 8:30 PM MDT
Civil Twilight 5:13 AM MDT 9:03 PM MDT
Nautical Twilight 4:31 AM MDT 9:45 PM MDT
Astronomical Twilight 3:43 AM MDT 10:34 PM MDT
Moon 9:29 AM MDT (5/14) No Moon Set
Length of Visible Light 15h 50m
Length of Day
14h 43m
Waxing Crescent, 19% of the Moon is Illuminated
May 14
Waxing Crescent
May 17
First Quarter
May 24
Full
May 31
Last Quarter
Jun 8
New

Hourly Weather History & Observations

Time (MDT) Temp. Dew Point Humidity Pressure Visibility Wind Dir Wind Speed Gust Speed Precip Events Conditions
12:53 AM 64.9 °F 33.1 °F 31% 29.72 in 10.0 mi South 11.5 mph - N/A   Clear
1:53 AM 59.0 °F 35.1 °F 41% 29.73 in 10.0 mi SSW 9.2 mph - N/A   Clear
2:53 AM 57.9 °F 36.0 °F 44% 29.73 in 10.0 mi SSW 6.9 mph - N/A   Clear
3:53 AM 61.0 °F 35.1 °F 38% 29.73 in 10.0 mi SSW 10.4 mph - N/A   Clear
4:53 AM 57.0 °F 36.0 °F 45% 29.72 in 10.0 mi South 9.2 mph - N/A   Clear
5:53 AM 57.0 °F 35.1 °F 44% 29.73 in 10.0 mi SSW 13.8 mph - N/A   Clear
6:53 AM 60.1 °F 41.0 °F 49% 29.77 in 10.0 mi Calm Calm - N/A   Clear
7:53 AM 68.0 °F 37.0 °F 32% 29.79 in 10.0 mi Calm Calm - N/A   Clear
8:53 AM 69.1 °F 43.0 °F 39% 29.80 in 10.0 mi North 8.1 mph - N/A   Clear
9:53 AM 72.0 °F 42.1 °F 34% 29.81 in 10.0 mi NNE 10.4 mph - N/A   Clear
10:53 AM 73.9 °F 42.1 °F 32% 29.78 in 10.0 mi NNE 10.4 mph - N/A   Clear
11:53 AM 78.1 °F 39.9 °F 25% 29.77 in 10.0 mi NNE 8.1 mph - N/A   Clear
12:53 PM 82.9 °F 34.0 °F 17% 29.73 in 10.0 mi NE 9.2 mph - N/A   Clear
1:53 PM 86.0 °F 28.0 °F 12% 29.70 in 10.0 mi NNE 8.1 mph - N/A   Clear
2:53 PM 87.1 °F 23.0 °F 10% 29.68 in 10.0 mi North 4.6 mph - N/A   Clear
3:53 PM 88.0 °F 21.9 °F 9% 29.65 in 10.0 mi NNW 8.1 mph 17.3 mph N/A   Clear
4:53 PM 87.1 °F 19.9 °F 8% 29.64 in 10.0 mi Variable 4.6 mph 23.0 mph N/A   Clear
5:53 PM 88.0 °F 14.0 °F 6% 29.63 in 10.0 mi WNW 20.7 mph 29.9 mph N/A   Clear
6:53 PM 84.0 °F 16.0 °F 8% 29.63 in 10.0 mi NW 17.3 mph - N/A   Clear
7:53 PM 81.0 °F 18.0 °F 10% 29.63 in 10.0 mi NW 9.2 mph - N/A   Clear
8:53 PM 71.1 °F 28.0 °F 20% 29.68 in 10.0 mi SSE 3.5 mph - N/A   Clear
9:53 PM 72.0 °F 36.0 °F 27% 29.73 in 10.0 mi NW 16.1 mph - N/A   Clear
10:53 PM 68.0 °F 37.0 °F 32% 29.76 in 10.0 mi NW 12.7 mph - N/A   Clear
11:53 PM 64.0 °F 35.1 °F 34% 29.77 in 10.0 mi West 3.5 mph - N/A   Clear